User: anonymous   Login
Location: Cussy
(47.0410°N, 4.6412°E)
Time: 23:06:14
(UTC+00:00)
Language:

Meteor 2-13 Rocket - Orbit

View from above orbital plane
View from above orbital plane
View from above satellite
View from above satellite

Ground track
Ground track

The orbit data is extracted from the following two-line orbital elements,

1 16409U 85119B   21175.77798365  .00000025  00000-0  92146-5 0  9996
2 16409  82.5377 270.2995 0014089 218.3700 141.6459 13.84817991794079
Epoch (UTC): 24 June 2021 18:40:17
Eccentricity: 0.0014089
inclination: 82.5377°
perigee height: 936 km
apogee height: 957 km
right ascension of ascending node: 270.2995°
argument of perigee: 218.3700°
revolutions per day: 13.84817991
mean anomaly at epoch: 141.6459°
orbit number at epoch: 79407

The dashed part of the orbit path shows where the satellite is in the earth's shadow,  

DLR